Location: Berlise
(49.6641°N, 4.1077°E)
Time: 23:48:38
(UTC+00:00)

Cosmos 2084 Rocket - Pass Details

Date: 27 January 2021
Orbit: 532 x 648 km, 62.8° (Epoch: 01 March)

Event Time Altitude Azimuth Distance (km) Brightness Sun altitude
Exits shadow 04:37:18 51° 137° (SE) 771 4.1 -26.6°
Drops below altitude 10° 04:40:41 10° 138° (SE) 1,983 6.6 -26.1°
Sets 04:43:00 0° 138° (SE) 2,902 7.6 -25.7°
